Location: ??????
(55.8274°N, 37.9338°E)
Time: 02:56:48
(UTC+00:00)

MSX - Visible Passes

Search period start: 19 July 2024 00:00
Search period end: 29 July 2024 00:00
Orbit: 894 x 905 km, 99.0° (Epoch: 18 July)

Date Brightness Start Highest point End Pass type
(mag) Time Alt. Az. Time Alt. Az. Time Alt. Az.
19 Jul 6.0 21:45:18 10° NE 21:48:36 15° E 21:51:55 10° ESE visible
19 Jul 4.1 23:25:37 10° NNE 23:31:24 69° ESE 23:37:09 10° S visible
20 Jul 6.0 21:47:45 10° NE 21:51:13 16° E 21:54:40 10° ESE visible
20 Jul 4.0 23:28:11 10° NNE 23:33:58 72° ESE 23:39:44 10° S visible
21 Jul 5.9 21:50:13 10° NE 21:53:50 17° E 21:57:26 10° ESE visible
21 Jul 4.0 23:30:43 10° NNE 23:36:32 74° ESE 23:42:18 10° S visible
22 Jul 5.9 21:52:41 10° NE 21:56:26 17° E 22:00:10 10° SE visible
22 Jul 4.0 23:33:18 10° NNE 23:39:07 77° ESE 23:44:53 10° SSW visible
23 Jul 5.8 21:55:10 10° NE 21:59:02 18° E 22:02:55 10° SE visible
23 Jul 3.9 23:35:51 10° NNE 23:41:41 80° ESE 23:47:26 10° SSW visible
24 Jul 5.8 21:57:39 10° NE 22:01:39 19° E 22:05:38 10° SE visible
24 Jul 3.9 23:38:25 10° NNE 23:44:14 83° ESE 23:49:59 10° SSW visible
25 Jul 5.8 22:00:09 10° NE 22:04:15 20° E 22:08:21 10° SE visible
25 Jul 3.9 23:40:59 10° NNE 23:46:48 85° ESE 23:52:31 10° SSW visible
26 Jul 5.7 22:02:39 10° NE 22:06:52 20° E 22:11:04 10° SE visible
26 Jul 3.9 23:43:33 10° NNE 23:49:22 88° ESE 23:55:03 11° SSW visible
27 Jul 5.7 22:05:08 10° NE 22:09:28 21° E 22:13:46 10° SE visible
27 Jul 3.9 23:46:07 10° NNE 23:51:56 89° WNW 23:57:35 11° SSW visible
28 Jul 5.6 22:07:39 10° NE 22:12:04 22° E 22:16:28 10° SE visible
